EW3232 Weather Reports


Display with metric or nautical units.
time (UTC)temp
F
wind
direction
speed
MPH
gust
MPH
rain 1hr
in
rain 24hr
in
rain mn
in
humidity
%
barometer
mb
20210616015537 67 5 0.0 2.0 0.00 0.00 0.00 72 1016.4
20210616015310 67 5 0.0 1.0 0.00 0.00 0.00 73 1016.5
20210616015028 67 5 0.0 1.0 0.00 0.00 0.00 73 1016.5
20210616014719 67 5 0.0 1.0 0.00 0.00 0.00 73 1016.6
20210616014158 67 5 0.0 1.0 0.00 0.00 0.00 73 1016.6
20210616013923 67 5 0.0 2.0 0.00 0.00 0.00 73 1016.7
20210616013732 67 358 0.0 3.0 0.00 0.00 0.00 74 1016.7
20210616013432 67 358 0.0 3.0 0.00 0.00 0.00 74 1016.7
20210616013208 67 358 0.0 3.0 0.00 0.00 0.00 74 1016.7
20210616012700 67 10 2.0 2.0 0.00 0.00 0.00 74 1016.7
20210616012424 67 10 0.0 1.0 0.00 0.00 0.00 73 1016.7
20210616012141 67 10 0.0 1.0 0.00 0.00 0.00 73 1016.7
20210616011913 67 10 0.0 2.0 0.00 0.00 0.00 73 1016.8
20210616011643 67 10 0.0 2.0 0.00 0.00 0.00 73 1016.8
20210616011205 67 10 1.0 2.0 0.00 0.00 0.00 73 1016.7
20210616010936 67 10 2.0 2.0 0.00 0.00 0.00 73 1016.8
20210616010646 66 10 2.0 2.0 0.00 0.00 0.00 74 1016.7
20210616010416 66 10 0.0 2.0 0.00 0.00 0.00 74 1016.8
20210616010144 66 9 0.0 2.0 0.00 0.00 0.00 75 1016.8
20210616005903 66 360 1.0 2.0 0.00 0.00 0.00 75 1016.8
20210616005405 66 360 1.0 2.0 0.00 0.00 0.00 75 1016.9
20210616005128 66 360 1.0 2.0 0.00 0.00 0.00 75 1017.0
20210616004912 66 360 2.0 2.0 0.00 0.00 0.00 75 1017.0
20210616004624 66 360 1.0 1.0 0.00 0.00 0.00 75 1017.0
20210616004007 66 355 0.0 1.0 0.00 0.00 0.00 75 1016.9
20210616003556 66 354 1.0 2.0 0.00 0.00 0.00 75 1017.0
20210616003326 66 355 1.0 2.0 0.00 0.00 0.00 75 1017.0
20210616003046 66 354 0.0 2.0 0.00 0.00 0.00 75 1014.3
20210616003035 66 354 1.0 2.0 0.00 0.00 0.00 75 1017.0
20210616002757 66 355 0.0 2.0 0.00 0.00 0.00 75 1017.0
20210616002520 66 354 1.0 2.0 0.00 0.00 0.00 74 1017.1
20210616002232 66 354 0.0 2.0 0.00 0.00 0.00 75 1017.1
20210616002009 66 354 0.0 2.0 0.00 0.00 0.00 75 1017.1
20210616001728 66 354 1.0 2.0 0.00 0.00 0.00 75 1017.2
20210616001204 66 352 1.0 1.0 0.00 0.00 0.00 75 1017.2
20210616000920 66 329 1.0 3.0 0.00 0.00 0.00 74 1017.2
20210616000629 66 329 1.0 3.0 0.00 0.00 0.00 74 1017.3
20210616000344 66 327 0.0 3.0 0.00 0.00 0.00 74 1017.2
20210616000137 66 325 2.0 3.0 0.00 0.00 0.00 74 1014.5
20210616000055 66 325 3.0 3.0 0.00 0.00 0.00 74 1017.2
20210615235749 66 325 3.0 3.0 0.00 0.00 0.00 74 1017.3
20210615235426 66 325 3.0 4.0 0.00 0.00 0.00 73 1017.2
20210615235218 66 321 2.0 4.0 0.00 0.00 0.00 73 1017.2
20210615234906 66 318 3.0 4.0 0.00 0.00 0.00 73 1017.2
20210615234712 66 324 2.0 3.0 0.00 0.00 0.00 73 1014.5
20210615234622 66 324 2.0 3.0 0.00 0.00 0.00 73 1014.5
20210615234547 66 324 3.0 3.0 0.00 0.00 0.00 73 1017.3
20210615234232 66 341 2.0 3.0 0.00 0.00 0.00 73 1017.3
20210615233928 66 341 2.0 4.0 0.00 0.00 0.00 73 1017.3
20210615233623 66 321 3.0 4.0 0.00 0.00 0.00 73 1017.3
20210615233325 66 324 3.0 4.0 0.00 0.00 0.00 73 1017.4
20210615233000 66 333 1.0 3.0 0.00 0.00 0.00 72 1017.4
20210615232811 66 339 3.0 3.0 0.00 0.00 0.00 72 1017.4
20210615232459 66 325 2.0 3.0 0.00 0.00 0.00 72 1017.3
20210615232149 67 327 2.0 3.0 0.00 0.00 0.00 71 1017.3
20210615231804 67 355 2.0 3.0 0.00 0.00 0.00 71 1017.3
20210615231605 67 312 2.0 3.0 0.00 0.00 0.00 71 1017.3
20210615231257 67 7 1.0 2.0 0.00 0.00 0.00 70 1017.3
20210615230941 67 9 0.0 2.0 0.00 0.00 0.00 70 1017.4
20210615230600 67 8 0.0 2.0 0.00 0.00 0.00 70 1017.4
20210615230411 67 8 1.0 2.0 0.00 0.00 0.00 70 1017.4
20210615230057 68 8 0.0 3.0 0.00 0.00 0.00 70 1017.4
20210615230032 68 8 0.0 3.0 0.00 0.00 0.00 70 1014.6
20210615225731 68 8 0.0 4.0 0.00 0.00 0.00 70 1017.3
20210615225417 68 313 0.0 5.0 0.00 0.00 0.00 70 1017.3
20210615225112 67 310 3.0 5.0 0.00 0.00 0.00 70 1017.4
20210615224810 67 306 3.0 5.0 0.00 0.00 0.00 70 1017.4
20210615224629 67 310 4.0 5.0 0.00 0.00 0.00 70 1017.4
20210615224303 67 318 4.0 4.0 0.00 0.00 0.00 70 1017.4
20210615224120 67 334 3.0 4.0 0.00 0.00 0.00 70 1017.4
20210615223634 67 16 2.0 4.0 0.00 0.00 0.00 70 1017.5
20210615223316 67 330 3.0 4.0 0.00 0.00 0.00 70 1017.5
20210615223138 67 317 3.0 4.0 0.00 0.00 0.00 70 1017.5
20210615222806 68 14 2.0 4.0 0.00 0.00 0.00 69 1017.5
20210615222502 68 15 0.0 4.0 0.00 0.00 0.00 69 1017.4
20210615222203 68 315 2.0 4.0 0.00 0.00 0.00 69 1017.6
20210615221900 68 321 3.0 3.0 0.00 0.00 0.00 68 1017.6
20210615221730 69 5 1.0 3.0 0.00 0.00 0.00 67 1014.8
20210615221551 69 5 2.0 3.0 0.00 0.00 0.00 67 1017.6
20210615221244 69 18 2.0 2.0 0.00 0.00 0.00 67 1017.6
20210615220950 69 19 1.0 2.0 0.00 0.00 0.00 66 1017.6
20210615220651 70 19 1.0 2.0 0.00 0.00 0.00 66 1017.5
20210615220348 70 89 0.0 3.0 0.00 0.00 0.00 65 1017.6
20210615220130 70 89 0.0 3.0 0.00 0.00 0.00 66 1014.8
20210615220050 70 89 0.0 3.0 0.00 0.00 0.00 66 1017.6
20210615215748 70 76 1.0 3.0 0.00 0.00 0.00 66 1017.6
20210615215448 69 47 2.0 3.0 0.00 0.00 0.00 66 1017.6
20210615215321 70 349 2.0 3.0 0.00 0.00 0.00 66 1017.5
20210615214855 70 350 1.0 3.0 0.00 0.00 0.00 66 1017.6
20210615214628 70 337 2.0 3.0 0.00 0.00 0.00 65 1017.6
20210615214401 70 335 2.0 3.0 0.00 0.00 0.00 65 1017.6
20210615213900 70 4 2.0 2.0 0.00 0.00 0.00 64 1017.6
20210615213610 70 9 2.0 4.0 0.00 0.00 0.00 64 1017.6
20210615213334 70 9 1.0 4.0 0.00 0.00 0.00 64 1017.6
20210615213133 70 338 1.0 4.0 0.00 0.00 0.00 64 1014.9
20210615213055 70 338 0.0 4.0 0.00 0.00 0.00 64 1017.7
20210615212808 70 306 4.0 4.0 0.00 0.00 0.00 64 1017.6
20210615212535 70 325 3.0 3.0 0.00 0.00 0.00 64 1017.6
20210615212255 70 328 2.0 4.0 0.00 0.00 0.00 64 1017.6
20210615211926 70 320 2.0 5.0 0.00 0.00 0.00 64 1017.6
20210615211520 70 315 4.0 5.0 0.00 0.00 0.00 64 1014.7
20210615211518 70 315 4.0 5.0 0.00 0.00 0.00 64 1017.5
20210615211235 70 318 5.0 5.0 0.00 0.00 0.00 64 1017.6
20210615210957 70 334 2.0 4.0 0.00 0.00 0.00 64 1017.5
20210615210707 70 327 3.0 4.0 0.00 0.00 0.00 64 1017.4
20210615210414 70 339 2.0 4.0 0.00 0.00 0.00 64 1017.5
20210615210124 70 338 2.0 4.0 0.00 0.00 0.00 64 1017.5
20210615205858 70 331 2.0 4.0 0.00 0.00 0.00 64 1017.5
20210615205618 70 321 3.0 4.0 0.00 0.00 0.00 63 1017.6
20210615205117 71 318 4.0 4.0 0.00 0.00 0.00 63 1017.6
20210615204818 71 318 3.0 4.0 0.00 0.00 0.00 62 1017.5
20210615204600 71 341 2.0 4.0 0.00 0.00 0.00 62 1014.7
20210615204547 71 341 2.0 4.0 0.00 0.00 0.00 62 1017.5
20210615204304 71 343 2.0 4.0 0.00 0.00 0.00 62 1017.5
20210615204019 71 330 2.0 3.0 0.00 0.00 0.00 61 1017.5
20210615203734 71 347 2.0 3.0 0.00 0.00 0.00 61 1017.6
20210615203457 72 7 2.0 4.0 0.00 0.00 0.00 61 1017.6
20210615203217 72 8 0.0 5.0 0.00 0.00 0.00 61 1017.6
20210615202708 72 312 2.0 5.0 0.00 0.00 0.00 60 1017.5
20210615202445 72 314 4.0 5.0 0.00 0.00 0.00 60 1017.6
20210615202159 72 324 2.0 5.0 0.00 0.00 0.00 60 1017.6
20210615201940 72 309 4.0 5.0 0.00 0.00 0.00 60 1017.6
20210615201712 72 308 5.0 5.0 0.00 0.00 0.00 60 1017.6
20210615201159 73 314 4.0 5.0 0.00 0.00 0.00 59 1017.5
20210615200942 73 320 4.0 5.0 0.00 0.00 0.00 59 1017.6
20210615200621 73 3 1.0 3.0 0.00 0.00 0.00 59 1017.6
20210615200339 73 3 1.0 3.0 0.00 0.00 0.00 58 1017.6
20210615200110 73 3 1.0 4.0 0.00 0.00 0.00 58 1014.7
20210615200046 73 3 2.0 4.0 0.00 0.00 0.00 58 1017.5
20210615195747 74 18 2.0 4.0 0.00 0.00 0.00 57 1017.5
20210615195523 74 18 1.0 4.0 0.00 0.00 0.00 57 1017.5
20210615195233 74 344 1.0 4.0 0.00 0.00 0.00 57 1017.4
20210615194955 74 320 3.0 4.0 0.00 0.00 0.00 57 1017.3
20210615194630 75 312 2.0 3.0 0.00 0.00 0.00 55 1017.3
20210615194353 75 355 3.0 3.0 0.00 0.00 0.00 54 1017.2
20210615194115 76 41 0.0 3.0 0.00 0.00 0.00 54 1017.2
20210615193607 76 356 2.0 2.0 0.00 0.00 0.00 53 1017.2
20210615193337 77 356 1.0 2.0 0.00 0.00 0.00 52 1017.3
20210615193106 77 61 1.0 1.0 0.00 0.00 0.00 52 1017.3
20210615192751 77 62 0.0 2.0 0.00 0.00 0.00 52 1017.3
20210615192531 77 62 0.0 3.0 0.00 0.00 0.00 51 1017.3
20210615192241 77 62 1.0 3.0 0.00 0.00 0.00 51 1017.3
20210615191947 78 64 1.0 3.0 0.00 0.00 0.00 51 1017.3
20210615191652 78 64 2.0 3.0 0.00 0.00 0.00 50 1017.4
20210615191423 78 62 3.0 3.0 0.00 0.00 0.00 50 1017.4
20210615190924 78 67 2.0 7.0 0.00 0.00 0.00 50 1017.4
20210615190647 78 74 1.0 7.0 0.00 0.00 0.00 50 1017.4
20210615190435 78 80 1.0 8.0 0.00 0.00 0.00 50 1017.4
20210615190153 78 80 2.0 8.0 0.00 0.00 0.00 50 1017.4
20210615185905 78 58 5.0 8.0 0.00 0.00 0.00 50 1017.4
20210615185613 79 55 7.0 8.0 0.00 0.00 0.00 49 1017.4
20210615185332 79 72 4.0 5.0 0.00 0.00 0.00 49 1017.5
20210615184805 80 89 3.0 4.0 0.00 0.00 0.00 48 1017.5
20210615184503 80 101 3.0 4.0 0.00 0.00 0.00 47 1017.5
20210615184212 80 90 2.0 4.0 0.00 0.00 0.00 47 1017.5
20210615183953 80 99 3.0 4.0 0.00 0.00 0.00 46 1017.6
20210615183704 81 128 3.0 5.0 0.00 0.00 0.00 46 1017.6
20210615183404 81 110 2.0 5.0 0.00 0.00 0.00 45 1017.6
20210615183109 81 153 3.0 5.0 0.00 0.00 0.00 45 1017.6
20210615182813 81 123 2.0 4.0 0.00 0.00 0.00 45 1017.5
20210615182459 81 110 2.0 3.0 0.00 0.00 0.00 44 1017.5
20210615182323 81 100 2.0 3.0 0.00 0.00 0.00 44 1017.5
20210615181906 81 92 3.0 3.0 0.00 0.00 0.00 43 1017.5
20210615181624 81 60 2.0 4.0 0.00 0.00 0.00 44 1014.7
20210615181530 81 60 3.0 4.0 0.00 0.00 0.00 44 1017.5
20210615181348 81 61 3.0 4.0 0.00 0.00 0.00 43 1017.6
20210615180958 81 62 2.0 4.0 0.00 0.00 0.00 43 1017.5
20210615180615 81 62 2.0 3.0 0.00 0.00 0.00 43 1017.6
20210615180354 81 71 2.0 3.0 0.00 0.00 0.00 43 1017.6
20210615180104 81 66 2.0 3.0 0.00 0.00 0.00 43 1017.6
20210615175825 81 93 2.0 3.0 0.00 0.00 0.00 43 1017.5
20210615175456 81 104 2.0 4.0 0.00 0.00 0.00 43 1017.4
20210615175315 81 94 3.0 5.0 0.00 0.00 0.00 43 1017.4
20210615174807 81 147 1.0 6.0 0.00 0.00 0.00 42 1017.5
20210615174317 82 145 3.0 6.0 0.00 0.00 0.00 42 1017.5
20210615174056 82 88 1.0 8.0 0.00 0.00 0.00 42 1017.5
20210615173812 82 104 2.0 8.0 0.00 0.00 0.00 41 1017.5
20210615173430 82 199 5.0 9.0 0.00 0.00 0.00 41 1017.5
20210615173230 82 101 3.0 14.0 0.00 0.00 0.00 41 1017.6
20210615172739 82 158 6.0 14.0 0.00 0.00 0.00 40 1017.6
20210615172520 82 171 12.0 14.0 0.00 0.00 0.00 40 1017.7
20210615172232 82 154 6.0 14.0 0.00 0.00 0.00 40 1017.7
20210615172008 82 216 6.0 14.0 0.00 0.00 0.00 40 1017.7
20210615171723 82 193 12.0 14.0 0.00 0.00 0.00 39 1017.7
20210615171212 83 195 11.0 15.0 0.00 0.00 0.00 38 1017.7
20210615170940 83 149 6.0 15.0 0.00 0.00 0.00 37 1017.6
20210615170723 84 197 12.0 15.0 0.00 0.00 0.00 38 1017.6
20210615170436 84 197 12.0 15.0 0.00 0.00 0.00 37 1017.6
20210615170201 84 180 9.0 14.0 0.00 0.00 0.00 37 1017.5
20210615165910 85 127 5.0 10.0 0.00 0.00 0.00 37 1017.5
20210615165615 85 178 7.0 12.0 0.00 0.00 0.00 36 1017.5
20210615165110 85 168 2.0 14.0 0.00 0.00 0.00 35 1017.6
20210615164830 85 135 5.0 14.0 0.00 0.00 0.00 35 1017.6
20210615164639 85 128 7.0 14.0 0.00 0.00 0.00 34 1014.7
20210615164555 85 128 6.0 14.0 0.00 0.00 0.00 34 1017.6
20210615164311 85 192 11.0 14.0 0.00 0.00 0.00 34 1017.6
20210615163933 86 204 10.0 14.0 0.00 0.00 0.00 33 1017.6
20210615163751 86 195 8.0 14.0 0.00 0.00 0.00 33 1017.6
20210615163418 87 206 10.0 13.0 0.00 0.00 0.00 33 1017.6
20210615163232 87 129 5.0 13.0 0.00 0.00 0.00 33 1017.6
20210615162711 87 236 5.0 14.0 0.00 0.00 0.00 33 1017.5
20210615162448 87 159 4.0 15.0 0.00 0.00 0.00 33 1017.6
20210615162210 87 147 7.0 15.0 0.00 0.00 0.00 33 1017.5
20210615161726 87 174 9.0 13.0 0.00 0.00 0.00 32 1017.5
20210615161202 87 211 4.0 10.0 0.00 0.00 0.00 32 1017.6
20210615160932 87 237 7.0 10.0 0.00 0.00 0.00 33 1017.6
20210615160630 87 195 4.0 12.0 0.00 0.00 0.00 33 1017.6
20210615160355 87 161 6.0 12.0 0.00 0.00 0.00 32 1017.6
20210615160120 87 193 8.0 12.0 0.00 0.00 0.00 32 1017.6
20210615155848 87 180 9.0 12.0 0.00 0.00 0.00 31 1017.5
20210615155625 88 177 7.0 12.0 0.00 0.00 0.00 32 1017.5
20210615155117 88 189 8.0 12.0 0.00 0.00 0.00 32 1017.5
20210615154901 88 190 3.0 12.0 0.00 0.00 0.00 31 1017.5
20210615154619 88 188 10.0 11.0 0.00 0.00 0.00 32 1017.4
20210615154347 88 163 5.0 11.0 0.00 0.00 0.00 31 1017.5
20210615154106 88 192 9.0 12.0 0.00 0.00 0.00 32 1017.5
20210615153604 87 145 6.0 12.0 0.00 0.00 0.00 31 1017.4
20210615153341 87 171 12.0 12.0 0.00 0.00 0.00 31 1017.5
20210615153108 87 214 9.0 11.0 0.00 0.00 0.00 31 1017.4
20210615152835 87 126 6.0 11.0 0.00 0.00 0.00 32 1017.5
20210615152506 87 284 4.0 12.0 0.00 0.00 0.00 31 1017.5
20210615152325 87 196 3.0 12.0 0.00 0.00 0.00 31 1017.5
20210615151936 87 194 7.0 12.0 0.00 0.00 0.00 30 1017.5
20210615151520 87 210 6.0 14.0 0.00 0.00 0.00 29 1014.7
20210615151518 87 210 3.0 14.0 0.00 0.00 0.00 29 1017.6
20210615151240 87 218 8.0 14.0 0.00 0.00 0.00 29 1017.6
20210615151016 87 186 9.0 12.0 0.00 0.00 0.00 30 1017.6
20210615150743 87 152 6.0 13.0 0.00 0.00 0.00 30 1017.7
20210615150448 87 208 4.0 13.0 0.00 0.00 0.00 30 1017.6
20210615150202 87 197 4.0 13.0 0.00 0.00 0.00 30 1017.6
20210615145921 87 203 4.0 13.0 0.00 0.00 0.00 32 1017.6
20210615145445 87 158 4.0 19.0 0.00 0.00 0.00 32 1017.6
20210615145158 87 162 5.0 21.0 0.00 0.00 0.00 31 1017.6
20210615144941 88 156 3.0 21.0 0.00 0.00 0.00 32 1017.6
20210615144705 88 162 8.0 21.0 0.00 0.00 0.00 31 1017.6
20210615144213 88 187 6.0 15.0 0.00 0.00 0.00 32 1017.5
20210615143937 89 143 6.0 15.0 0.00 0.00 0.00 32 1017.6
20210615143705 88 143 7.0 17.0 0.00 0.00 0.00 32 1017.6
20210615143439 88 183 12.0 17.0 0.00 0.00 0.00 32 1017.7
20210615143159 88 180 7.0 17.0 0.00 0.00 0.00 32 1017.7
20210615142927 89 130 12.0 17.0 0.00 0.00 0.00 31 1017.8
20210615142651 89 217 7.0 14.0 0.00 0.00 0.00 31 1017.8
20210615142107 89 197 9.0 14.0 0.00 0.00 0.00 31 1017.9
20210615141831 88 230 5.0 14.0 0.00 0.00 0.00 31 1017.9
20210615141624 88 192 7.0 14.0 0.00 0.00 0.00 32 1015.1
20210615141551 88 192 11.0 14.0 0.00 0.00 0.00 32 1018.0
20210615141307 88 198 3.0 14.0 0.00 0.00 0.00 30 1018.1
20210615141034 88 209 8.0 14.0 0.00 0.00 0.00 31 1018.0
20210615140457 89 136 6.0 16.0 0.00 0.00 0.00 30 1018.0
20210615140214 89 109 5.0 16.0 0.00 0.00 0.00 30 1018.1
20210615135714 89 213 8.0 14.0 0.00 0.00 0.00 30 1018.1
20210615135448 90 197 5.0 14.0 0.00 0.00 0.00 29 1018.0
20210615135217 90 181 5.0 14.0 0.00 0.00 0.00 29 1018.0
20210615134951 90 195 6.0 20.0 0.00 0.00 0.00 29 1018.0
20210615134719 89 173 7.0 20.0 0.00 0.00 0.00 30 1018.0
20210615134217 89 172 11.0 20.0 0.00 0.00 0.00 29 1018.1
20210615133945 89 141 12.0 15.0 0.00 0.00 0.00 30 1018.1
20210615133707 89 111 9.0 15.0 0.00 0.00 0.00 30 1018.1
20210615133436 89 95 7.0 13.0 0.00 0.00 0.00 29 1018.1
20210615133152 89 142 7.0 13.0 0.00 0.00 0.00 30 1018.1
20210615132728 89 79 8.0 15.0 0.00 0.00 0.00 30 1018.0
20210615132447 89 114 9.0 15.0 0.00 0.00 0.00 30 1018.0
20210615132256 89 135 6.0 15.0 0.00 0.00 0.00 30 1018.1
20210615131758 89 84 7.0 13.0 0.00 0.00 0.00 30 1018.2
20210615131518 89 154 9.0 12.0 0.00 0.00 0.00 31 1018.1
20210615131515 89 154 5.0 12.0 0.00 0.00 0.00 31 1015.3
20210615131239 89 113 7.0 15.0 0.00 0.00 0.00 33 1018.2
20210615131017 88 133 9.0 15.0 0.00 0.00 0.00 34 1018.2
20210615130747 88 75 8.0 15.0 0.00 0.00 0.00 32 1018.3
20210615130501 88 120 9.0 13.0 0.00 0.00 0.00 33 1018.3
20210615130212 87 92 7.0 13.0 0.00 0.00 0.00 32 1018.3
20210615125700 87 126 7.0 12.0 0.00 0.00 0.00 32 1018.4
20210615125432 88 130 5.0 13.0 0.00 0.00 0.00 32 1018.4
20210615125158 87 115 5.0 13.0 0.00 0.00 0.00 34 1018.4
20210615124936 87 115 7.0 13.0 0.00 0.00 0.00 34 1018.5
20210615124650 87 80 9.0 13.0 0.00 0.00 0.00 34 1018.5
20210615124424 88 90 8.0 10.0 0.00 0.00 0.00 35 1018.6
20210615123935 88 112 5.0 10.0 0.00 0.00 0.00 36 1018.6
20210615123712 87 159 10.0 10.0 0.00 0.00 0.00 37 1018.6
20210615123439 87 136 2.0 11.0 0.00 0.00 0.00 37 1018.6
20210615123159 86 90 4.0 11.0 0.00 0.00 0.00 36 1018.7
20210615122924 87 104 5.0 14.0 0.00 0.00 0.00 37 1018.7
20210615122432 87 126 5.0 15.0 0.00 0.00 0.00 38 1018.7
20210615122140 87 86 11.0 15.0 0.00 0.00 0.00 38 1018.7
20210615121908 88 121 8.0 15.0 0.00 0.00 0.00 38 1018.7
20210615121654 88 128 3.0 12.0 0.00 0.00 0.00 39 1015.9
20210615121543 88 128 4.0 12.0 0.00 0.00 0.00 39 1018.8
20210615121256 88 186 10.0 12.0 0.00 0.00 0.00 40 1018.8
20210615121020 87 143 3.0 9.0 0.00 0.00 0.00 40 1018.8
20210615120834 87 175 9.0 10.0 0.00 0.00 0.00 40 1018.8
20210615120313 86 122 2.0 10.0 0.00 0.00 0.00 40 1018.9
20210615120102 87 121 6.0 10.0 0.00 0.00 0.00 40 1016.1
20210615120037 87 121 9.0 10.0 0.00 0.00 0.00 40 1019.0
20210615115740 86 90 4.0 10.0 0.00 0.00 0.00 39 1019.0
20210615115503 87 130 6.0 10.0 0.00 0.00 0.00 38 1019.0
20210615115322 87 156 4.0 14.0 0.00 0.00 0.00 39 1019.0
20210615114758 87 116 7.0 18.0 0.00 0.00 0.00 38 1019.0
20210615114259 87 157 15.0 15.0 0.00 0.00 0.00 38 1019.1
20210615113914 87 135 11.0 15.0 0.00 0.00 0.00 39 1019.0
20210615113735 87 116 11.0 15.0 0.00 0.00 0.00 38 1019.1
20210615113513 87 143 10.0 16.0 0.00 0.00 0.00 39 1019.1
20210615113006 87 188 6.0 16.0 0.00 0.00 0.00 39 1019.1
20210615112733 87 139 16.0 16.0 0.00 0.00 0.00 38 1019.1
20210615112435 86 105 4.0 9.0 0.00 0.00 0.00 37 1019.2
20210615112158 86 99 6.0 11.0 0.00 0.00 0.00 36 1019.2
20210615111938 86 109 7.0 11.0 0.00 0.00 0.00 36 1019.2
20210615111653 87 86 6.0 11.0 0.00 0.00 0.00 38 1019.1
20210615111201 87 130 7.0 13.0 0.00 0.00 0.00 38 1019.2
20210615110930 87 116 8.0 13.0 0.00 0.00 0.00 38 1019.1
20210615110635 86 122 8.0 13.0 0.00 0.00 0.00 38 1019.1
20210615110401 86 102 8.0 14.0 0.00 0.00 0.00 38 1019.1
20210615110117 87 121 9.0 14.0 0.00 0.00 0.00 37 1019.1
20210615105833 87 63 9.0 14.0 0.00 0.00 0.00 38 1019.1
20210615105553 87 138 11.0 14.0 0.00 0.00 0.00 37 1019.1
20210615105313 87 104 6.0 13.0 0.00 0.00 0.00 39 1019.0
20210615104803 87 107 12.0 12.0 0.00 0.00 0.00 37 1019.1
20210615104606 87 119 5.0 10.0 0.00 0.00 0.00 37 1019.1
20210615104336 87 98 4.0 8.0 0.00 0.00 0.00 34 1019.1
20210615104006 87 102 4.0 11.0 0.00 0.00 0.00 34 1019.1
20210615103600 87 153 4.0 12.0 0.00 0.00 0.00 35 1019.1
20210615103302 87 121 5.0 12.0 0.00 0.00 0.00 33 1019.1
20210615103015 87 185 5.0 9.0 0.00 0.00 0.00 33 1019.0
20210615103013 87 185 4.0 9.0 0.00 0.00 0.00 33 1016.2
20210615102725 87 62 6.0 9.0 0.00 0.00 0.00 33 1019.1
20210615102555 87 102 6.0 8.0 0.00 0.00 0.00 33 1019.1
20210615102315 87 77 3.0 8.0 0.00 0.00 0.00 32 1019.1
20210615101828 87 131 5.0 8.0 0.00 0.00 0.00 34 1019.1
20210615101706 87 162 3.0 9.0 0.00 0.00 0.00 33 1016.3
20210615101548 87 164 6.0 9.0 0.00 0.00 0.00 33 1019.1
20210615101300 87 209 5.0 10.0 0.00 0.00 0.00 33 1019.2
20210615101035 87 195 5.0 11.0 0.00 0.00 0.00 33 1019.2
20210615100811 87 167 7.0 11.0 0.00 0.00 0.00 33 1019.3
20210615100422 87 147 8.0 11.0 0.00 0.00 0.00 33 1019.2
20210615100232 87 171 7.0 11.0 0.00 0.00 0.00 35 1019.2
20210615095731 86 67 1.0 10.0 0.00 0.00 0.00 34 1019.2
20210615095500 86 148 2.0 10.0 0.00 0.00 0.00 35 1019.3
20210615095225 86 180 7.0 10.0 0.00 0.00 0.00 35 1019.3
20210615095001 86 82 4.0 8.0 0.00 0.00 0.00 36 1019.2
20210615094716 86 158 5.0 9.0 0.00 0.00 0.00 36 1019.2
20210615094203 85 125 3.0 11.0 0.00 0.00 0.00 36 1019.2
20210615093938 85 88 6.0 11.0 0.00 0.00 0.00 37 1019.2
20210615093704 85 68 5.0 9.0 0.00 0.00 0.00 36 1019.2
20210615093424 86 88 6.0 10.0 0.00 0.00 0.00 37 1019.2
20210615093145 85 150 1.0 10.0 0.00 0.00 0.00 37 1019.2
20210615092917 85 98 5.0 10.0 0.00 0.00 0.00 37 1019.2
20210615092407 85 84 2.0 8.0 0.00 0.00 0.00 38 1019.2
20210615091806 85 88 3.0 7.0 0.00 0.00 0.00 40 1019.2
20210615091544 85 216 4.0 7.0 0.00 0.00 0.00 39 1016.5
20210615091538 85 216 5.0 7.0 0.00 0.00 0.00 39 1019.3
20210615091253 85 135 0.0 6.0 0.00 0.00 0.00 39 1019.3
20210615090936 85 159 2.0 6.0 0.00 0.00 0.00 40 1019.4
20210615090645 84 121 0.0 6.0 0.00 0.00 0.00 41 1019.4
20210615090402 84 118 2.0 6.0 0.00 0.00 0.00 41 1019.4
20210615090150 84 107 2.0 6.0 0.00 0.00 0.00 42 1016.7
20210615090102 84 107 3.0 6.0 0.00 0.00 0.00 42 1019.5
20210615085828 84 221 3.0 6.0 0.00 0.00 0.00 41 1019.5
20210615085553 84 212 2.0 6.0 0.00 0.00 0.00 41 1019.6
20210615085316 84 161 5.0 6.0 0.00 0.00 0.00 42 1019.6
20210615084816 84 128 4.0 8.0 0.00 0.00 0.00 42 1019.6
20210615084615 84 139 3.0 8.0 0.00 0.00 0.00 42 1016.7
20210615084542 84 139 2.0 8.0 0.00 0.00 0.00 42 1019.6
20210615084301 84 150 7.0 8.0 0.00 0.00 0.00 43 1019.7
20210615084024 84 177 2.0 8.0 0.00 0.00 0.00 43 1019.6
20210615083800 84 129 2.0 8.0 0.00 0.00 0.00 43 1019.6
20210615083304 84 125 4.0 7.0 0.00 0.00 0.00 43 1019.6
20210615083043 83 136 1.0 7.0 0.00 0.00 0.00 44 1016.7
20210615083035 83 136 1.0 7.0 0.00 0.00 0.00 44 1019.6
20210615082754 84 110 5.0 7.0 0.00 0.00 0.00 43 1019.5
20210615082523 84 131 2.0 4.0 0.00 0.00 0.00 44 1019.5
20210615082207 83 172 0.0 7.0 0.00 0.00 0.00 45 1019.5
20210615082036 83 163 0.0 7.0 0.00 0.00 0.00 45 1019.5
20210615081540 84 132 3.0 7.0 0.00 0.00 0.00 45 1016.6
20210615081517 84 132 3.0 7.0 0.00 0.00 0.00 45 1019.5
20210615081247 83 155 3.0 7.0 0.00 0.00 0.00 46 1019.5
20210615081013 83 138 1.0 7.0 0.00 0.00 0.00 45 1019.5
20210615080659 83 120 4.0 7.0 0.00 0.00 0.00 45 1019.5
20210615080407 83 116 2.0 4.0 0.00 0.00 0.00 45 1019.5
20210615080119 83 126 3.0 4.0 0.00 0.00 0.00 44 1019.5
20210615075715 83 133 1.0 5.0 0.00 0.00 0.00 44 1019.5
20210615075421 84 147 2.0 5.0 0.00 0.00 0.00 43 1019.5
20210615075145 84 146 4.0 5.0 0.00 0.00 0.00 43 1019.5
20210615074900 83 90 0.0 0.0 0.00 0.00 0.00 45 1019.5
20210615074636 83 89 0.0 0.0 0.00 0.00 0.00 44 1019.6
20210615074407 83 77 0.0 0.0 0.00 0.00 0.00 44 1019.6
20210615073914 83 123 0.0 0.0 0.00 0.00 0.00 45 1019.6
20210615073634 82 143 0.0 0.0 0.00 0.00 0.00 46 1019.6
20210615073404 82 169 0.0 0.0 0.00 0.00 0.00 47 1019.6
20210615072913 82 176 0.0 0.0 0.00 0.00 0.00 47 1019.6
20210615072357 81 93 0.0 0.0 0.00 0.00 0.00 47 1019.6
20210615072120 81 93 0.0 0.0 0.00 0.00 0.00 47 1019.6
20210615071844 81 93 0.0 0.0 0.00 0.00 0.00 47 1019.6
20210615071608 82 93 0.0 0.0 0.00 0.00 0.00 49 1019.6
20210615071337 81 93 0.0 0.0 0.00 0.00 0.00 50 1019.5
20210615070955 81 93 0.0 1.0 0.00 0.00 0.00 50 1019.6
20210615070815 80 93 0.0 1.0 0.00 0.00 0.00 50 1019.6
20210615070519 80 93 0.0 1.0 0.00 0.00 0.00 51 1019.5
20210615070235 80 93 1.0 1.0 0.00 0.00 0.00 53 1019.6
20210615065715 78 93 0.0 1.0 0.00 0.00 0.00 54 1019.5
20210615065443 78 93 1.0 1.0 0.00 0.00 0.00 54 1019.5
20210615065155 78 67 0.0 1.0 0.00 0.00 0.00 54 1019.5
20210615064922 77 55 0.0 1.0 0.00 0.00 0.00 54 1019.5
20210615064647 77 55 1.0 1.0 0.00 0.00 0.00 57 1019.5
20210615064424 76 55 0.0 1.0 0.00 0.00 0.00 58 1019.5
20210615063915 75 55 0.0 2.0 0.00 0.00 0.00 59 1019.5
20210615063632 74 55 1.0 2.0 0.00 0.00 0.00 59 1019.5
20210615063409 74 55 2.0 2.0 0.00 0.00 0.00 60 1019.4
20210615063221 74 55 1.0 2.0 0.00 0.00 0.00 60 1016.7
20210615063059 74 55 2.0 2.0 0.00 0.00 0.00 60 1019.5
20210615062832 74 55 1.0 1.0 0.00 0.00 0.00 61 1019.5
20210615062609 74 55 0.0 1.0 0.00 0.00 0.00 60 1019.5
20210615062113 73 55 0.0 1.0 0.00 0.00 0.00 63 1019.5
20210615061835 73 55 1.0 1.0 0.00 0.00 0.00 63 1019.6
20210615061617 73 55 0.0 1.0 0.00 0.00 0.00 63 1016.8
20210615061545 73 55 0.0 1.0 0.00 0.00 0.00 63 1019.5
20210615061231 72 55 0.0 2.0 0.00 0.00 0.00 63 1019.5
20210615060958 72 55 1.0 2.0 0.00 0.00 0.00 63 1019.4
20210615060723 72 55 1.0 3.0 0.00 0.00 0.00 64 1019.4
20210615060440 72 54 2.0 3.0 0.00 0.00 0.00 65 1019.5
20210615060159 72 36 1.0 3.0 0.00 0.00 0.00 65 1019.4
20210615055713 71 36 0.0 1.0 0.00 0.00 0.00 65 1019.4
20210615055440 71 36 1.0 2.0 0.00 0.00 0.00 64 1019.4
20210615055216 71 36 0.0 3.0 0.00 0.00 0.00 65 1019.4
20210615054940 70 36 0.0 3.0 0.00 0.00 0.00 65 1019.2
20210615054705 70 343 2.0 3.0 0.00 0.00 0.00 65 1019.2
20210615054209 70 26 0.0 3.0 0.00 0.00 0.00 66 1019.2
20210615053935 70 311 2.0 3.0 0.00 0.00 0.00 66 1019.2
20210615053649 69 256 0.0 3.0 0.00 0.00 0.00 67 1019.2
20210615053423 69 256 0.0 3.0 0.00 0.00 0.00 66 1019.2
20210615053142 69 257 0.0 3.0 0.00 0.00 0.00 67 1019.2
20210615052909 68 33 0.0 2.0 0.00 0.00 0.00 67 1019.2
20210615052359 68 354 0.0 4.0 0.00 0.00 0.00 68 1019.1
20210615052139 68 353 1.0 4.0 0.00 0.00 0.00 68 1019.1
20210615051917 68 326 0.0 4.0 0.00 0.00 0.00 68 1019.1
20210615051636 68 317 2.0 2.0 0.00 0.00 0.00 69 1019.1
20210615051415 67 360 1.0 2.0 0.00 0.00 0.00 69 1019.0
20210615050916 68 359 0.0 4.0 0.00 0.00 0.00 68 1019.0
20210615050617 68 358 0.0 4.0 0.00 0.00 0.00 68 1019.0
20210615050347 68 251 4.0 4.0 0.00 0.00 0.00 68 1019.0
20210615050108 68 1 0.0 2.0 0.00 0.00 0.00 67 1019.0
20210615045807 68 1 0.0 2.0 0.00 0.00 0.00 68 1019.0
20210615045537 68 338 1.0 2.0 0.00 0.00 0.00 69 1019.0
20210615045128 67 344 0.0 3.0 0.00 0.00 0.00 69 1019.0
20210615044913 67 344 1.0 3.0 0.00 0.00 0.00 70 1019.1
20210615044646 67 333 2.0 3.0 0.00 0.00 0.00 70 1019.0
20210615044409 67 333 2.0 3.0 0.00 0.00 0.00 70 1018.9
20210615043912 67 318 1.0 4.0 0.00 0.00 0.00 71 1019.0
20210615043639 67 318 2.0 4.0 0.00 0.00 0.00 71 1019.0
20210615043343 67 318 2.0 4.0 0.00 0.00 0.00 71 1019.0
20210615043104 66 313 4.0 4.0 0.00 0.00 0.00 71 1019.0
20210615042847 66 351 3.0 4.0 0.00 0.00 0.00 71 1019.0
20210615042407 67 360 1.0 4.0 0.00 0.00 0.00 71 1019.0
20210615042132 67 325 2.0 4.0 0.00 0.00 0.00 71 1018.9
20210615041854 66 317 4.0 4.0 0.00 0.00 0.00 71 1019.0
20210615041511 67 330 2.0 3.0 0.00 0.00 0.00 71 1016.3
20210615041507 67 330 2.0 3.0 0.00 0.00 0.00 71 1019.0
20210615041333 67 323 3.0 3.0 0.00 0.00 0.00 71 1018.9
20210615041002 67 343 1.0 3.0 0.00 0.00 0.00 71 1018.9
20210615040815 67 342 2.0 3.0 0.00 0.00 0.00 71 1018.9
20210615040519 67 348 2.0 3.0 0.00 0.00 0.00 71 1018.9
20210615040016 67 323 2.0 4.0 0.00 0.00 0.00 71 1018.9
20210615035740 67 317 2.0 4.0 0.00 0.00 0.00 72 1018.9
20210615035507 67 320 3.0 5.0 0.00 0.00 0.00 72 1018.9
20210615035316 67 327 3.0 5.0 0.00 0.00 0.00 72 1018.9
20210615034838 67 308 4.0 5.0 0.00 0.00 0.00 71 1018.8
20210615034607 67 315 4.0 4.0 0.00 0.00 0.00 71 1018.8
20210615034315 67 321 3.0 4.0 0.00 0.00 0.00 71 1018.8
20210615034058 67 348 3.0 3.0 0.00 0.00 0.00 71 1018.8
20210615033600 68 350 0.0 1.0 0.00 0.00 0.00 70 1018.9
20210615033333 68 350 0.0 2.0 0.00 0.00 0.00 70 1018.9
20210615033119 68 346 0.0 2.0 0.00 0.00 0.00 70 1016.3
20210615033100 68 346 0.0 2.0 0.00 0.00 0.00 70 1019.0
20210615032831 68 334 0.0 3.0 0.00 0.00 0.00 70 1019.0
20210615032550 68 334 1.0 3.0 0.00 0.00 0.00 70 1019.1
20210615032221 68 334 2.0 5.0 0.00 0.00 0.00 69 1019.1
20210615031942 68 334 1.0 5.0 0.00 0.00 0.00 69 1019.1
20210615031714 68 323 2.0 5.0 0.00 0.00 0.00 69 1019.0
20210615031158 68 327 2.0 5.0 0.00 0.00 0.00 69 1019.0
20210615030935 68 316 4.0 5.0 0.00 0.00 0.00 69 1019.0
20210615030637 68 315 3.0 5.0 0.00 0.00 0.00 68 1019.0
20210615030358 69 336 3.0 5.0 0.00 0.00 0.00 68 1019.0
20210615030119 69 315 4.0 5.0 0.00 0.00 0.00 68 1019.0
20210615025846 68 343 2.0 4.0 0.00 0.00 0.00 68 1019.0
20210615025605 69 348 1.0 6.0 0.00 0.00 0.00 68 1019.0
20210615025102 69 320 4.0 6.0 0.00 0.00 0.00 67 1019.0
20210615024830 69 313 5.0 6.0 0.00 0.00 0.00 67 1019.0
20210615024341 69 317 4.0 4.0 0.00 0.00 0.00 67 1019.0
20210615024107 69 331 2.0 3.0 0.00 0.00 0.00 66 1018.9
20210615023602 70 354 2.0 4.0 0.00 0.00 0.00 65 1019.0
20210615023335 70 305 2.0 4.0 0.00 0.00 0.00 65 1018.9
20210615023033 70 314 3.0 6.0 0.00 0.00 0.00 64 1016.3
20210615023022 70 314 2.0 6.0 0.00 0.00 0.00 64 1018.9
20210615022618 71 358 2.0 6.0 0.00 0.00 0.00 64 1018.9
20210615022117 71 312 5.0 6.0 0.00 0.00 0.00 64 1019.0
20210615021850 71 327 4.0 5.0 0.00 0.00 0.00 63 1019.0
20210615021616 71 322 4.0 6.0 0.00 0.00 0.00 63 1019.0
20210615021350 71 336 3.0 6.0 0.00 0.00 0.00 63 1018.9
20210615021107 71 325 2.0 6.0 0.00 0.00 0.00 62 1019.0
20210615020818 72 313 5.0 6.0 0.00 0.00 0.00 62 1019.0
20210615020524 71 317 4.0 6.0 0.00 0.00 0.00 62 1019.0
20210615015958 72 313 5.0 6.0 0.00 0.00 0.00 62 1019.0
20210615015720 72 319 4.0 5.0 0.00 0.00 0.00 61 1019.1